Theta_e
350 348 347 346 345 344 341 339 337 335 333 330 329 329 330 329 328 326 324 322 320 320 321 321 321 322 325 330 334 335 334 335 336 336 335 335 336 335 335 334 334 334 335 335 337 338 338 339 339 339 339 340 339 340 340 340 340 340 340 340 340 340 340 340 340 339 340 339 339 340 339 339 339 338 337 337 337 337 337 338 338 338 338 338 338
349 347 347 345 345 344 340 339 337 334 332 329 330 330 329 329 328 327 325 323 322 321 321 322 322 323 325 329 332 331 333 336 337 337 336 336 337 337 336 335 333 335 335 335 336 338 338 338 339 339 339 340 339 339 339 339 339 340 340 340 340 340 339 339 339 339 340 339 339 339 338 338 337 337 337 337 337 337 337 338 337 338 338 338 337
347 348 347 346 346 343 340 338 337 334 330 329 330 331 330 330 329 327 326 324 322 321 322 321 323 325 328 328 326 328 334 338 338 337 337 337 338 337 337 336 334 335 336 336 336 337 338 338 338 338 339 339 340 339 339 339 339 339 339 339 338 338 338 338 337 338 338 336 335 334 334 335 335 336 336 336 337 337 337 337 338 337 338 337 337
347 348 346 347 346 341 339 338 337 334 329 329 331 331 330 330 329 328 327 325 324 322 322 323 324 328 331 330 327 330 336 338 336 335 336 337 337 337 337 337 336 336 335 335 336 336 337 338 337 338 338 338 338 339 339 339 339 339 338 337 337 336 336 336 336 335 334 333 333 331 331 331 333 334 336 335 335 335 336 336 337 336 336 336 335
347 347 345 348 346 341 339 338 337 332 327 330 332 332 332 330 330 328 327 325 325 325 323 325 326 328 332 333 332 333 336 338 336 335 337 337 338 338 338 338 337 336 335 335 335 337 337 337 337 338 338 337 337 337 338 338 338 338 338 337 337 336 335 335 334 334 333 333 333 332 332 331 333 332 333 335 334 334 335 335 336 335 335 334 334
347 345 345 347 346 343 339 338 336 330 327 330 334 334 332 332 330 327 327 326 326 328 329 328 328 331 334 334 335 334 335 337 336 337 338 337 337 338 338 337 337 337 336 335 335 337 338 337 337 337 337 337 337 337 338 338 339 338 338 337 337 337 335 334 334 333 332 333 333 332 332 332 334 333 332 333 334 334 334 334 334 334 333 333 332
345 344 346 346 346 343 339 338 335 330 327 332 336 335 334 333 330 326 327 329 331 334 335 333 332 336 336 331 333 335 337 337 337 338 337 337 337 337 337 338 337 337 337 335 336 337 336 336 337 337 336 336 336 336 337 337 337 335 335 334 334 335 333 334 334 332 331 332 331 331 331 330 332 333 332 332 333 333 333 333 333 333 332 332 331
345 346 346 344 344 342 340 337 335 330 328 335 337 337 336 334 330 326 327 332 336 337 337 337 337 337 334 329 333 338 339 338 337 338 337 337 337 337 338 338 338 338 335 334 335 336 336 336 336 336 335 334 334 334 335 334 332 331 331 332 333 333 332 333 334 332 331 331 331 330 329 329 329 331 332 332 332 333 333 333 333 333 333 332 329
346 347 345 343 343 341 338 337 335 328 332 338 338 337 336 335 333 329 330 334 338 338 338 339 339 337 333 330 334 338 339 338 337 336 337 337 337 338 338 337 336 335 332 329 331 333 336 337 336 335 333 332 333 334 332 330 330 330 332 333 334 334 333 333 334 332 331 332 332 331 330 329 328 329 330 330 330 331 332 331 330 332 333 332 330
347 347 345 343 343 341 338 337 334 329 333 337 338 338 334 336 337 335 335 336 337 337 338 338 338 337 334 332 335 337 338 339 336 335 338 336 336 337 335 334 333 333 330 325 324 327 332 334 333 332 331 332 333 331 329 329 331 332 332 334 334 334 334 334 333 331 331 332 332 330 329 329 329 331 331 330 331 331 331 329 329 331 332 332 331
346 346 343 342 343 341 338 338 334 331 334 334 337 338 335 337 338 338 338 338 337 336 337 338 337 337 335 332 334 337 337 338 334 334 337 335 336 336 334 334 334 333 328 323 320 324 329 330 331 331 331 331 330 329 328 330 332 332 333 334 334 334 334 333 331 330 331 331 330 329 329 329 331 331 330 330 330 330 330 330 330 331 331 332 331
347 346 343 343 344 340 338 338 334 333 334 333 337 340 338 339 339 339 338 337 338 337 337 338 337 336 336 333 333 337 337 336 333 334 337 336 337 337 336 335 334 332 327 322 318 322 328 329 330 330 330 329 328 328 329 331 333 333 333 333 334 333 332 331 329 328 328 329 329 329 329 329 330 330 329 329 329 329 329 329 330 330 330 330 329
346 345 343 344 344 340 339 338 336 334 333 333 337 341 340 339 340 339 336 335 336 338 337 338 336 335 335 332 333 338 339 336 335 335 336 337 338 337 335 334 333 331 327 321 316 320 326 328 328 328 328 327 327 328 330 332 333 332 332 332 332 330 329 328 326 325 327 328 328 328 328 329 329 330 329 329 329 329 329 329 329 329 330 329 328
345 345 345 345 344 342 340 339 337 335 333 333 337 341 341 339 339 337 334 334 335 337 336 336 335 335 334 332 334 337 338 336 336 336 336 337 337 336 335 334 332 330 328 320 314 318 324 326 326 326 326 327 329 330 330 332 333 332 332 331 330 329 326 324 324 326 328 329 329 329 329 329 329 329 329 328 329 329 328 328 328 330 330 328 328
345 345 346 345 344 343 342 341 337 336 335 334 337 339 339 337 336 334 333 334 334 335 335 336 335 335 334 332 333 336 337 336 336 337 337 337 337 336 335 334 331 330 328 319 313 317 322 324 324 325 327 329 330 330 332 333 334 333 332 331 330 328 324 321 322 325 328 328 328 328 328 328 328 328 328 328 328 329 328 328 329 329 328 328 328
346 345 346 345 344 344 344 342 338 337 335 335 336 337 337 335 333 332 333 333 333 334 335 336 337 336 334 333 333 334 336 336 337 337 337 337 337 336 334 333 331 330 328 320 314 316 320 322 324 327 329 330 330 332 333 334 334 333 332 331 330 326 323 321 321 323 326 327 327 327 327 328 328 329 329 329 329 329 328 328 328 327 328 328 328
346 346 346 345 344 344 344 342 340 340 336 335 337 336 336 334 333 332 331 332 332 334 334 336 339 338 335 334 333 334 335 336 337 337 337 337 337 335 334 333 331 330 328 321 316 317 321 323 326 329 330 330 332 333 334 334 334 333 332 331 329 326 325 323 322 323 325 326 327 328 328 328 328 328 328 328 328 328 328 328 327 327 328 328 328
347 347 346 345 344 344 343 342 341 342 339 338 338 336 335 334 333 331 331 332 331 331 332 335 339 338 337 335 333 333 334 335 337 338 338 337 338 335 334 333 331 330 329 323 317 319 322 325 328 329 330 331 333 334 334 334 333 333 332 330 329 328 326 324 322 323 325 326 327 328 328 328 328 328 328 328 328 328 328 328 327 328 329 329 328
347 347 346 346 344 344 343 342 342 342 340 340 339 337 336 335 333 331 331 331 330 331 333 335 338 338 337 336 334 334 334 335 337 338 338 338 337 335 334 333 331 330 329 324 319 321 324 327 329 329 330 333 333 334 333 334 333 332 331 331 331 328 325 322 322 324 326 326 326 328 328 328 328 329 328 328 328 328 328 327 327 328 328 327 326
347 346 346 346 344 344 343 343 343 342 341 340 338 337 337 335 333 332 331 331 331 333 335 337 338 337 337 336 336 335 334 335 337 338 338 338 336 335 334 333 332 330 330 327 321 321 325 329 329 328 331 332 334 334 334 333 333 332 332 332 330 327 323 321 321 324 326 327 327 328 328 328 328 328 328 328 328 327 326 326 327 328 327 326 325
346 346 345 346 345 345 344 344 344 343 342 340 337 336 336 335 334 331 330 332 334 335 337 339 340 338 337 336 336 336 335 335 336 338 338 338 336 335 334 333 332 331 330 329 325 322 323 328 329 329 332 332 334 336 335 334 333 333 332 331 329 326 324 321 320 322 325 327 328 328 328 328 328 328 328 328 327 326 326 326 327 326 326 325 325
346 346 346 345 346 345 344 344 344 343 343 341 337 335 336 336 334 331 331 334 337 337 338 340 339 339 338 337 336 336 336 335 335 338 338 338 336 334 334 333 332 331 330 330 329 326 323 325 327 329 331 332 333 335 335 334 333 332 332 330 328 327 325 322 320 321 324 326 327 328 328 328 328 328 328 328 327 326 326 326 326 326 325 324 323
346 346 346 345 345 345 344 344 343 344 342 340 338 337 337 336 334 333 334 336 338 339 338 339 339 338 337 336 335 335 335 334 335 337 337 337 336 334 334 334 332 332 331 330 330 329 326 323 324 329 331 331 333 334 335 334 333 332 331 330 329 328 325 322 321 322 325 327 327 328 328 328 328 328 327 327 326 326 326 325 325 325 325 324 324
345 345 345 345 344 344 344 344 343 343 342 340 338 338 338 336 334 336 337 337 339 339 339 339 338 337 336 334 333 333 333 332 334 336 336 336 336 335 334 334 332 331 331 331 331 331 329 325 324 330 331 330 332 333 334 334 333 332 331 331 330 329 326 323 322 323 325 327 328 329 328 328 328 327 327 327 326 326 325 325 325 324 325 324 324
343 344 344 345 343 343 343 343 343 343 341 339 338 338 338 336 335 338 339 339 339 339 339 339 338 337 335 333 332 332 332 332 333 335 335 335 336 335 334 334 332 332 331 331 331 331 331 328 328 330 330 331 334 334 333 333 333 332 332 332 331 329 325 323 323 323 324 326 328 328 328 328 328 327 327 327 326 326 325 325 324 324 324 324 324
342 343 344 344 342 342 342 341 341 341 339 338 338 338 339 337 336 339 340 341 340 339 339 339 337 336 335 333 332 333 332 333 334 333 333 333 335 335 334 333 331 331 331 331 331 331 331 330 330 330 331 333 336 335 334 334 332 332 332 331 331 328 326 325 324 324 324 324 326 326 327 328 328 327 327 327 326 326 325 325 324 324 324 324 324
340 342 343 342 342 342 341 341 340 340 339 339 339 340 339 337 337 340 340 341 341 340 339 338 337 336 335 334 333 333 332 334 334 333 333 333 334 334 334 333 330 329 330 331 331 330 331 331 331 331 332 334 334 333 334 334 333 333 332 331 331 329 327 326 325 324 324 324 327 327 328 328 327 327 327 325 325 325 325 325 324 324 324 324 324
340 340 341 341 342 342 341 341 341 341 341 340 340 339 338 337 338 340 340 341 341 340 339 338 337 336 335 334 334 333 332 334 335 333 333 333 332 332 333 332 330 328 329 331 330 330 330 330 331 332 333 334 333 332 333 336 335 333 332 331 330 329 328 327 326 325 325 327 329 328 328 327 327 327 326 325 325 326 325 325 325 325 325 324 324
337 337 338 339 341 342 342 341 341 341 341 340 340 338 337 337 339 339 339 341 340 340 339 338 337 336 336 335 335 334 333 334 335 334 333 332 332 332 331 331 330 328 328 331 331 330 330 330 329 331 332 332 331 331 333 335 334 332 332 331 330 330 328 327 327 326 326 327 328 328 326 324 325 326 326 326 327 327 327 327 326 326 325 324 324
337 337 337 336 339 341 341 341 340 341 341 340 339 337 336 337 339 338 339 340 340 340 339 338 337 336 336 335 336 336 334 335 335 335 334 333 334 333 330 329 329 326 326 328 329 328 329 328 328 329 330 331 331 331 333 334 332 331 331 331 331 330 329 328 327 326 325 325 327 326 323 323 325 326 327 328 328 327 327 326 325 325 324 323 323
336 337 335 331 335 340 340 339 339 340 340 339 339 338 338 339 338 338 340 340 339 338 337 336 336 335 334 335 336 337 336 336 335 336 335 334 334 333 330 329 330 329 328 328 328 328 328 329 329 330 331 331 331 331 332 332 331 330 331 331 331 330 328 328 327 325 323 324 327 325 323 325 327 327 328 328 326 326 325 325 324 324 324 323 323
337 336 335 332 333 338 338 337 337 338 339 338 338 337 338 339 338 339 339 339 337 336 336 335 334 333 333 334 335 337 337 336 336 337 336 335 333 332 332 331 331 331 331 331 331 331 331 331 331 331 331 331 331 331 332 331 330 330 330 331 331 330 329 328 327 325 323 325 327 325 324 327 328 328 328 326 325 326 325 324 323 323 323 324 323
338 335 336 335 334 336 337 337 337 338 338 337 335 334 336 336 337 339 339 338 336 335 335 333 333 333 333 334 336 337 337 336 336 337 336 335 333 333 333 332 332 332 332 332 333 332 332 332 332 331 332 331 330 330 331 331 330 330 330 331 331 330 329 329 328 326 324 324 325 324 325 328 328 327 326 325 327 328 326 323 323 323 323 323 323
339 337 337 337 337 337 337 338 337 336 336 335 333 331 332 334 335 338 338 337 336 336 335 334 334 335 336 336 337 337 337 336 336 336 335 335 334 334 334 333 333 333 332 333 334 333 333 333 332 332 332 331 330 330 330 330 330 330 331 331 331 330 330 329 328 328 325 323 322 322 326 328 327 327 326 328 329 329 328 325 322 321 322 323 322
338 338 338 338 339 338 338 339 337 336 334 333 332 330 331 333 336 337 338 337 337 337 337 336 337 337 337 337 337 336 337 336 336 336 335 335 335 335 334 334 334 334 333 334 334 334 333 333 332 332 332 331 331 330 330 330 330 331 331 332 331 331 330 329 328 327 324 320 319 321 326 328 327 327 328 329 330 329 329 326 320 317 318 319 320
337 337 337 337 338 338 339 339 339 338 337 334 332 331 332 334 337 338 338 337 337 337 337 337 337 338 338 337 336 336 336 336 336 336 334 335 336 335 335 335 334 334 334 335 334 333 333 333 332 332 332 331 331 330 330 330 330 331 332 332 332 331 331 329 328 326 322 320 318 320 325 327 327 328 328 329 329 329 328 326 322 317 316 319 321
337 337 337 337 338 338 339 339 339 339 337 335 333 333 335 335 337 338 338 338 337 337 337 337 338 338 337 337 336 336 336 336 337 336 334 335 335 334 334 334 334 334 335 335 334 333 332 332 333 332 332 331 331 330 330 330 330 330 332 333 332 332 331 329 327 325 322 321 320 321 325 327 328 328 328 329 328 328 328 326 325 323 322 323 324
338 339 337 338 339 338 338 338 338 338 335 334 335 334 335 336 337 337 336 336 337 337 336 337 337 337 337 336 336 336 336 336 336 336 335 335 335 333 334 334 334 334 334 335 334 333 332 332 333 332 331 331 330 330 329 330 330 330 332 332 332 332 332 330 327 325 324 323 323 323 324 326 327 328 328 328 327 327 328 327 327 326 324 324 325
340 339 338 338 338 338 338 338 338 338 336 336 335 334 335 336 336 335 334 334 336 337 336 336 337 337 337 336 336 336 336 335 335 335 335 335 335 333 333 333 334 334 334 334 334 333 332 332 332 331 331 331 330 330 330 330 330 329 330 331 331 331 332 330 328 326 325 325 325 325 325 326 327 327 328 327 326 327 328 327 327 327 326 326 327
340 339 337 336 337 337 337 337 338 338 337 336 335 334 335 335 335 335 335 335 335 336 336 336 336 337 337 336 336 336 335 335 335 335 336 335 334 333 333 333 333 333 333 334 335 333 332 332 332 331 331 330 330 331 330 330 330 330 330 331 331 332 331 331 329 328 327 326 326 326 327 327 328 327 327 326 325 326 327 327 327 327 327 328 328
338 337 337 336 336 336 336 336 336 336 335 334 334 334 333 334 335 335 335 336 336 336 336 336 337 337 337 336 336 336 336 335 335 335 335 335 334 334 333 333 334 333 333 334 334 333 332 332 331 331 330 330 331 331 331 330 331 331 331 330 331 331 331 331 331 330 329 329 328 328 328 328 327 326 326 325 325 325 326 327 328 327 327 327 328
336 336 336 335 335 335 335 336 334 334 335 335 336 334 333 335 335 335 335 336 336 336 336 336 336 336 337 336 336 336 335 335 335 335 335 335 334 334 333 333 334 334 333 333 334 333 332 331 331 331 330 330 331 331 331 331 330 330 330 330 330 330 330 330 330 330 329 329 329 329 329 328 327 326 325 324 325 325 325 326 327 327 327 327 327
334 334 335 335 335 335 335 335 334 334 336 334 335 336 335 335 335 335 336 337 337 337 336 336 336 336 336 336 335 335 335 335 334 335 334 335 334 333 333 334 334 334 333 333 333 333 332 331 331 331 330 330 331 331 331 331 330 330 330 330 330 329 330 329 329 329 329 329 329 329 329 328 328 326 325 324 325 325 325 325 326 326 326 325 325
335 334 335 335 334 334 335 335 335 335 336 335 335 336 336 336 336 335 336 337 337 337 337 336 337 336 335 335 335 335 335 335 334 334 334 334 334 333 333 334 334 334 333 332 332 332 332 331 331 331 330 330 330 331 331 330 329 329 328 329 329 329 330 329 328 328 328 328 328 328 328 328 328 327 325 325 326 326 326 325 325 325 325 325 326
334 333 333 333 334 334 335 335 335 335 335 335 334 335 336 335 336 336 337 336 336 337 337 336 336 336 334 334 335 335 335 335 334 334 334 334 333 333 333 332 333 334 333 333 332 332 333 332 331 331 330 330 330 331 330 330 329 328 327 328 328 329 330 329 328 328 328 327 327 327 328 328 328 328 327 327 327 327 327 326 325 325 326 326 326
333 332 332 332 333 334 334 334 334 334 333 333 333 335 335 336 335 336 337 336 336 336 336 335 335 334 334 334 334 335 335 335 335 334 334 334 334 333 333 332 332 333 333 332 332 332 333 332 331 331 331 330 331 330 330 330 329 328 327 327 328 329 328 328 329 328 328 328 327 328 328 328 328 328 328 328 327 328 327 327 326 326 327 327 327
331 331 330 331 332 333 334 334 334 333 333 333 333 333 334 335 335 335 336 336 336 336 335 335 334 333 333 334 334 334 335 335 335 334 334 334 334 333 333 331 332 333 332 332 332 333 333 332 331 331 331 330 331 331 330 330 329 328 327 327 328 328 327 327 328 328 328 328 328 328 328 328 328 328 328 328 327 328 327 327 327 327 328 327 327
331 331 330 331 331 332 332 332 333 334 333 333 333 333 334 335 335 335 336 336 336 335 335 335 335 334 334 334 334 333 334 334 334 334 334 334 334 334 333 332 332 333 332 333 333 333 333 332 332 332 331 331 331 331 330 331 330 329 328 329 329 328 327 327 327 327 328 329 329 328 327 328 328 327 327 327 328 328 328 327 327 328 328 327 327
331 331 332 332 332 332 333 332 333 334 333 334 334 333 334 334 335 335 336 336 336 335 334 334 334 335 334 334 334 333 333 334 334 334 334 333 333 333 332 333 333 334 334 334 334 334 333 332 332 331 332 332 331 331 331 330 330 330 329 330 329 328 327 327 327 327 327 328 329 328 327 327 327 327 327 327 327 328 327 328 327 328 327 327 327
330 331 333 333 333 333 334 333 333 333 334 334 333 333 333 334 335 335 336 336 335 335 334 334 334 334 334 334 333 333 333 333 333 333 333 333 333 333 333 334 334 334 335 334 334 334 333 333 333 332 332 332 331 331 331 330 331 330 330 330 329 327 327 326 327 327 326 327 328 328 327 326 327 327 326 327 327 327 327 327 327 327 326 327 326
329 330 331 332 332 332 333 333 333 333 333 333 333 333 333 334 335 335 335 335 335 335 334 334 333 334 334 333 333 333 333 333 333 332 332 332 333 333 334 334 334 335 335 334 334 334 334 334 333 332 332 332 331 331 331 331 331 330 330 330 329 328 328 326 326 327 326 326 326 327 327 326 326 326 326 327 327 327 327 327 327 326 325 326 325
Wind_Speed
22 21 20 20 21 21 22 22 20 20 21 22 23 24 24 24 25 26 26 27 27 27 27 27 27 26 26 26 26 26 26 25 26 25 24 23 23 23 22 21 21 20 20 19 18 17 17 17 18 19 18 18 19 20 21 22 22 22 22 22 23 22 21 21 20 20 20 19 20 19 19 18 19 20 21 21 21 21 20 20 20 20 20 19 19
24 22 22 20 22 22 22 22 21 21 21 23 24 24 25 25 25 26 26 26 26 26 26 26 25 25 25 25 26 26 25 26 26 25 25 23 23 22 22 21 21 21 20 19 17 17 17 17 18 18 18 18 19 21 22 22 22 22 22 23 24 23 22 21 20 20 19 18 18 18 18 18 18 19 18 19 20 20 20 20 20 20 19 19 19
25 24 23 22 23 22 23 22 21 22 22 24 25 25 25 25 25 25 25 25 25 25 25 25 25 25 24 24 25 25 26 26 25 25 25 23 23 22 22 21 21 21 20 19 18 17 17 18 17 17 17 17 18 20 21 21 21 22 23 23 23 22 21 20 19 18 17 16 17 17 18 18 18 17 17 18 18 18 19 19 18 18 18 18 18
26 25 23 23 23 23 23 22 21 22 23 25 25 26 25 24 25 24 25 25 25 24 24 24 24 24 24 24 25 26 26 26 25 25 25 23 22 22 22 22 21 20 20 19 18 18 18 17 16 16 15 16 17 18 19 19 20 21 22 21 22 21 19 18 18 17 16 16 16 17 18 18 18 17 17 17 17 17 17 17 17 17 17 17 17
28 26 24 24 23 24 23 22 21 21 23 25 25 25 24 24 24 24 24 24 24 24 24 24 24 24 23 23 24 25 25 25 25 25 25 23 22 22 21 21 21 20 19 19 18 18 17 15 15 15 15 16 17 17 17 17 18 18 19 19 19 18 17 16 16 15 15 15 16 17 18 19 19 17 16 16 16 16 16 17 16 16 17 17 17
30 28 26 25 24 24 23 23 21 22 23 24 25 24 24 23 23 24 23 24 24 24 24 24 24 23 23 23 23 24 25 24 25 25 25 23 22 21 20 20 20 19 18 18 18 17 15 15 15 14 14 15 16 16 16 16 16 15 14 12 11 11 12 13 13 13 13 14 15 17 17 18 18 17 15 16 16 15 14 15 15 15 15 16 16
31 29 27 26 26 25 24 23 21 22 23 23 23 23 23 22 22 23 23 23 23 23 23 23 24 23 22 23 24 25 24 24 24 25 25 23 22 20 20 19 19 18 17 17 18 17 16 15 14 14 14 14 15 15 15 15 14 12 9 6 5 6 7 9 12 12 11 13 14 15 16 16 17 16 15 15 15 14 14 13 14 14 14 15 16
30 29 27 27 27 26 24 23 21 22 22 23 22 22 22 21 22 23 23 24 23 24 23 23 23 23 23 24 24 25 23 23 24 25 24 24 22 20 20 18 18 17 16 17 17 17 16 15 14 14 14 14 15 15 14 13 11 9 7 6 6 8 8 9 11 11 11 13 14 15 16 15 15 15 14 14 14 14 14 13 14 14 13 14 15
28 28 27 28 28 27 25 23 22 22 22 22 22 22 22 21 21 22 23 24 23 23 23 23 23 23 23 24 24 23 22 23 23 25 24 23 22 20 19 17 17 16 15 16 16 17 15 14 15 15 15 16 15 14 13 11 10 9 8 9 11 13 12 12 12 11 13 14 15 16 15 15 15 15 14 14 14 14 14 13 13 13 13 13 13
28 28 28 29 28 27 26 24 23 23 23 23 23 22 22 21 21 21 21 23 23 23 23 22 23 22 23 24 24 21 21 22 22 23 23 21 21 19 17 16 15 14 14 15 15 16 16 16 16 16 16 16 14 13 12 11 10 9 10 11 13 14 14 13 12 12 13 15 15 15 14 15 17 16 15 15 15 14 14 13 12 12 12 12 13
29 29 29 30 29 28 27 25 24 23 23 24 23 22 22 21 20 21 21 21 21 21 22 21 21 21 22 24 24 21 20 21 21 23 22 21 20 19 17 16 15 13 13 15 16 17 18 18 18 17 16 15 13 12 12 11 10 10 11 13 13 14 14 13 12 12 13 14 15 15 15 16 16 16 15 14 14 14 14 14 13 13 12 12 13
29 30 30 30 28 28 27 25 24 23 22 23 23 21 21 21 20 20 21 21 20 20 21 21 20 20 21 23 24 22 20 21 22 22 21 20 20 18 17 16 14 13 13 15 17 18 19 18 17 16 15 13 13 13 12 11 10 11 13 13 13 13 12 11 11 13 14 16 17 17 17 16 16 15 14 14 14 14 13 13 13 13 11 11 11
29 29 30 29 28 27 27 26 24 23 22 22 22 21 20 20 20 19 20 21 20 21 21 20 19 20 21 22 23 22 21 22 21 20 19 20 19 18 17 15 14 14 14 15 18 19 19 18 16 15 14 13 13 13 12 11 11 12 14 13 12 11 11 11 13 16 18 19 19 18 17 16 16 15 15 14 14 14 13 13 13 12 12 11 11
29 28 29 29 27 26 25 25 24 22 21 21 21 20 20 20 19 19 19 20 20 20 21 19 19 21 21 22 22 22 22 22 20 19 19 19 18 17 16 15 15 15 14 15 18 20 20 18 16 15 14 13 13 11 11 11 11 12 14 13 11 10 10 12 14 17 19 20 19 18 18 17 15 15 15 15 14 14 13 13 13 12 11 11 11
29 29 28 28 26 24 24 24 23 21 20 20 21 20 21 21 19 18 19 19 19 19 20 19 19 20 20 21 21 21 21 21 20 18 18 18 17 16 16 16 16 15 14 15 18 21 20 18 16 15 15 13 12 10 10 10 9 11 12 12 10 9 10 12 14 16 18 18 18 17 17 15 15 15 15 15 14 14 13 13 12 12 11 12 12
28 29 28 27 25 24 23 22 22 21 19 19 20 21 21 20 18 18 18 19 18 19 19 19 19 19 19 20 19 20 20 19 19 18 18 17 17 16 16 17 16 15 15 15 18 21 21 18 17 16 15 12 10 9 10 10 9 9 11 11 10 10 10 12 14 15 16 16 16 15 15 15 15 15 15 15 15 14 13 13 13 13 12 12 11
26 27 27 26 25 24 22 22 21 20 20 20 19 21 22 19 17 18 18 18 18 19 19 20 19 19 19 19 18 19 19 18 18 17 17 17 16 16 16 17 16 16 16 16 18 21 21 19 17 16 14 12 10 10 11 12 10 11 12 11 10 10 11 12 14 15 16 16 16 16 15 15 15 15 14 14 14 14 13 13 13 13 12 12 11
24 26 26 25 25 24 23 22 20 19 19 19 18 20 21 19 17 17 18 18 18 18 19 20 19 19 19 18 18 18 18 18 17 17 16 16 15 15 16 16 16 16 16 16 19 21 21 19 18 16 14 12 11 11 13 14 13 13 12 11 11 10 11 12 14 15 16 17 17 16 15 15 15 14 14 14 14 13 13 13 13 13 11 11 11
24 24 25 25 25 24 24 22 21 20 19 18 18 19 20 19 17 18 18 18 18 18 19 19 19 18 18 18 17 17 17 17 17 16 16 15 14 15 16 16 16 17 17 17 18 20 20 20 18 15 14 14 14 14 15 16 15 14 12 11 10 10 11 12 13 15 16 16 16 15 14 14 14 13 13 13 14 13 13 13 13 12 11 10 10
23 23 23 24 25 25 24 23 22 21 20 20 19 20 20 18 18 18 18 19 18 18 19 18 18 17 17 16 15 15 15 15 16 15 15 15 14 15 16 17 16 16 17 17 18 20 20 19 17 15 14 15 15 14 14 15 15 14 12 11 10 11 12 12 13 14 15 16 16 15 13 13 13 13 13 12 12 12 12 12 12 11 10 10 10
22 22 23 24 24 24 24 23 22 22 21 20 20 21 20 18 19 18 18 19 18 18 18 18 17 17 16 15 15 15 14 15 15 15 15 14 14 15 15 16 16 16 17 17 17 18 19 19 17 15 14 14 14 13 12 13 14 13 11 10 11 12 12 12 12 13 14 15 15 14 12 12 12 12 12 11 11 12 11 11 11 10 10 9 10
22 23 23 24 25 25 25 24 23 23 22 22 22 23 21 20 19 19 19 19 18 17 17 18 17 17 16 16 16 15 15 15 14 15 15 13 13 14 15 16 16 16 16 17 17 17 18 18 17 16 14 13 13 12 11 13 13 12 11 11 11 12 11 11 11 12 13 13 14 13 12 12 11 11 11 11 11 11 11 11 10 10 10 9 9
22 24 24 25 25 25 26 25 25 25 23 23 23 23 22 21 21 21 21 20 18 18 18 18 18 17 17 16 16 15 14 14 14 15 15 13 13 14 15 15 16 16 16 17 17 16 16 18 18 16 13 12 11 10 11 13 13 12 11 10 10 11 10 11 11 12 13 13 13 12 12 11 10 10 10 11 11 10 10 10 10 10 10 10 10
23 25 26 26 25 26 27 26 25 25 24 24 23 23 22 22 22 22 21 20 19 19 19 19 18 18 17 16 15 13 13 12 12 14 14 13 13 14 15 15 16 17 16 16 16 16 15 17 18 16 13 11 10 10 10 12 12 11 10 9 9 10 10 11 11 12 13 13 12 12 11 10 9 10 10 10 10 10 10 10 9 10 10 10 11
24 24 24 25 26 26 25 25 23 24 24 24 24 24 23 22 23 22 20 20 20 20 20 20 19 17 17 16 14 13 12 11 12 13 14 14 13 14 15 15 15 16 17 16 15 15 15 16 18 16 12 11 10 10 9 10 10 10 9 8 8 9 10 11 11 11 12 13 13 12 11 10 9 10 10 10 10 10 10 10 10 9 10 10 10
20 20 22 24 25 23 22 23 22 23 24 24 24 24 22 23 24 22 20 20 20 21 21 21 19 17 17 16 15 13 12 12 13 13 14 15 14 14 14 14 13 14 16 16 15 15 15 16 16 14 12 11 10 8 7 7 8 8 8 8 8 10 10 11 11 11 11 11 12 11 11 11 10 10 10 9 9 9 9 9 9 9 10 10 9
20 19 21 22 21 20 20 22 21 23 23 22 23 22 21 23 23 21 20 20 21 22 22 21 19 18 18 18 16 14 13 14 13 13 15 15 14 13 13 12 12 14 16 17 16 15 15 15 15 13 12 11 9 6 5 6 5 5 6 8 9 10 10 10 10 10 10 11 11 10 11 10 10 10 9 8 9 9 9 9 9 9 9 8 8
17 13 13 14 17 19 20 20 20 21 21 21 21 20 21 23 22 20 20 20 21 22 22 21 19 18 19 18 16 15 15 15 14 14 14 14 13 12 12 12 12 13 15 16 16 15 15 15 14 12 11 10 7 4 4 6 5 3 6 8 9 10 10 10 10 10 11 12 11 10 10 10 10 9 8 8 8 8 8 8 8 8 8 8 8
13 10 6 5 9 15 18 19 19 20 21 20 20 20 21 22 21 20 20 21 21 21 21 21 20 20 19 17 16 16 16 16 14 13 13 13 12 11 10 11 11 13 15 16 16 15 15 15 13 12 10 8 6 4 5 7 6 5 7 8 10 10 10 11 10 10 11 12 12 10 9 10 9 9 8 8 7 7 7 7 7 7 7 8 8
17 14 13 12 13 15 17 19 18 19 20 20 19 20 21 22 21 20 21 21 20 20 20 20 20 20 19 17 16 16 16 15 14 13 13 12 12 11 10 11 12 13 14 15 15 15 15 14 12 11 10 8 6 6 6 8 7 7 7 9 10 11 11 11 10 10 11 12 12 9 9 9 9 9 8 7 7 7 6 6 7 7 7 7 7
24 24 25 27 25 21 19 19 18 18 18 17 17 17 18 19 20 20 21 21 20 20 20 20 19 19 18 17 17 16 16 15 14 14 13 13 12 12 11 12 13 13 14 14 15 15 15 13 11 10 9 7 5 6 8 8 7 8 8 9 11 12 12 11 10 10 11 12 11 9 10 11 10 9 8 7 6 6 6 6 6 6 7 7 7
27 28 28 30 30 25 23 22 21 21 21 20 19 17 16 17 17 19 21 22 21 21 21 20 19 18 17 17 17 16 15 15 14 14 14 14 14 13 12 12 13 13 14 14 14 15 14 11 10 9 8 7 6 6 8 7 7 8 9 10 12 13 13 12 11 11 11 12 11 9 11 12 10 8 8 7 7 6 5 5 5 6 7 7 7
29 30 29 30 30 29 27 24 23 23 24 24 23 22 21 20 19 20 21 22 23 23 22 20 19 17 17 18 17 16 16 15 15 15 15 15 15 13 12 11 11 13 13 13 13 13 13 11 10 10 8 8 8 8 9 8 8 8 9 12 13 13 13 12 11 11 11 11 11 11 13 13 10 8 9 9 8 7 6 5 5 6 6 6 6
32 32 33 33 33 31 28 27 27 28 27 26 26 25 25 24 23 23 23 24 23 22 21 19 18 18 18 18 17 17 17 16 16 16 15 15 14 13 12 10 11 13 13 13 12 13 12 11 11 11 9 9 9 9 10 10 9 8 10 13 14 14 13 12 11 11 11 11 10 12 14 12 10 9 9 9 8 7 6 6 6 6 6 6 6
23 24 28 31 28 24 23 25 27 29 29 28 28 27 26 25 24 24 25 25 23 22 21 20 19 19 19 18 17 17 18 18 18 17 17 15 14 13 12 11 11 12 14 14 13 13 12 12 12 12 11 10 10 11 11 10 10 10 11 12 14 14 13 12 11 11 10 10 10 12 13 12 10 9 8 7 6 6 7 6 5 6 7 7 6
12 12 15 19 16 12 15 19 21 25 28 28 29 28 27 26 24 24 26 25 24 22 21 21 20 20 19 17 17 18 18 19 19 18 18 15 13 13 14 14 13 13 14 14 13 13 13 14 13 11 12 13 12 12 11 10 11 11 11 12 14 14 13 12 11 11 10 9 10 11 12 12 11 9 7 6 4 3 7 8 6 7 8 9 8
14 15 18 21 18 16 20 21 20 24 26 27 29 28 26 25 24 24 25 25 24 23 22 22 21 21 19 18 18 19 19 20 20 19 18 16 14 14 16 17 16 16 15 13 12 13 15 15 13 11 12 13 14 13 12 11 11 12 13 12 13 13 12 12 11 11 10 9 10 10 11 12 12 9 8 7 4 3 7 9 7 7 8 9 8
22 23 24 27 28 28 27 26 26 28 30 31 29 23 21 22 22 21 22 23 23 23 23 23 22 21 20 20 19 20 20 21 22 19 18 17 15 16 18 18 18 18 17 14 12 14 14 13 13 13 13 13 15 15 14 12 11 13 15 13 11 11 11 12 11 10 9 9 9 10 11 11 11 10 8 6 4 3 6 8 8 7 7 7 7
27 26 27 29 31 31 30 30 33 34 35 33 25 19 21 23 20 18 19 22 22 22 23 23 23 22 21 20 21 21 21 22 23 21 19 18 17 17 18 18 18 18 18 15 13 14 13 13 14 15 15 14 14 16 17 15 14 14 14 12 10 9 10 11 10 10 9 9 9 9 10 9 9 8 7 6 4 4 5 8 9 8 7 6 5
27 27 28 29 32 34 33 34 38 39 35 29 22 21 24 26 23 20 19 21 22 22 23 24 24 24 22 20 21 22 23 23 23 21 20 19 18 17 18 18 18 18 18 16 15 14 14 15 16 17 17 15 15 16 17 18 17 16 14 12 9 8 8 9 9 9 9 9 9 9 9 9 8 7 6 5 4 4 5 7 8 8 7 5 3
24 26 28 29 30 30 29 28 27 28 26 20 19 22 24 25 24 21 21 21 21 22 23 24 25 23 22 20 22 23 23 23 22 21 20 20 19 18 18 18 17 18 17 16 15 14 14 15 17 18 17 18 18 17 18 20 19 15 14 12 9 8 7 8 8 8 10 11 10 9 9 9 8 6 6 5 4 3 4 5 7 7 6 5 3
20 24 25 25 24 24 24 21 16 19 23 22 25 28 28 27 25 23 23 23 21 22 22 24 24 22 21 20 21 22 22 22 21 20 20 19 19 19 19 18 18 17 16 16 15 14 15 16 18 19 18 19 20 19 21 19 15 13 12 10 8 7 4 4 4 4 6 8 9 8 7 8 9 7 6 6 4 4 3 4 5 6 6 4 3
18 21 20 20 21 21 23 23 22 24 29 34 38 39 37 33 29 25 23 21 21 22 22 22 21 21 20 19 19 19 20 21 20 18 18 18 19 19 19 18 18 18 17 17 16 15 16 16 18 20 19 19 19 20 20 16 15 17 12 5 3 3 2 1 2 2 3 3 5 5 5 7 9 8 8 7 5 4 4 4 4 4 4 4 3
18 21 19 19 21 22 25 28 30 30 32 38 40 41 39 34 30 25 22 20 19 20 20 20 20 20 19 18 18 18 18 19 19 18 17 18 19 18 18 18 19 19 18 18 18 18 18 18 19 20 20 19 18 18 17 15 19 18 9 3 1 1 1 2 3 2 1 2 2 3 4 7 8 8 8 7 6 5 5 5 4 4 4 3 3
19 21 20 21 23 26 29 30 32 32 32 32 31 33 33 29 25 21 17 17 17 19 20 19 20 19 19 19 19 19 18 18 17 17 17 18 19 18 17 17 18 19 19 20 20 19 19 20 21 21 21 19 19 19 17 14 18 19 12 6 3 1 1 3 4 2 1 3 3 3 5 7 9 9 9 8 6 6 7 6 5 5 5 4 3
16 17 18 19 21 27 32 30 28 26 22 19 18 25 31 29 25 22 20 20 18 20 21 20 20 19 18 19 19 19 18 17 17 16 16 17 18 17 17 17 17 19 20 21 21 19 19 20 21 21 20 19 19 21 19 15 17 17 13 9 4 2 6 8 5 0 1 4 4 3 4 6 9 9 9 8 7 7 8 7 6 6 5 4 3
11 11 12 13 12 19 26 22 18 16 13 12 14 19 26 29 29 28 27 25 21 19 20 20 20 18 18 19 19 19 18 17 17 16 15 16 17 17 16 16 18 19 20 21 21 20 20 20 21 21 19 19 19 22 22 18 18 18 13 9 2 2 11 13 6 3 2 3 5 5 5 5 7 7 8 9 8 8 8 7 7 6 6 5 4
13 14 14 14 10 13 17 13 9 11 10 11 14 17 19 22 25 25 23 22 20 18 19 19 19 19 20 20 19 19 18 17 17 16 15 15 16 16 16 17 18 20 20 21 21 19 20 20 21 21 20 20 18 20 23 21 20 19 15 11 5 5 14 14 11 9 4 1 4 5 6 7 6 6 7 9 9 8 8 8 7 7 6 6 4
16 19 19 19 15 15 18 11 5 6 7 9 12 15 14 15 18 20 19 19 19 18 19 19 19 19 20 19 18 18 18 17 16 16 15 16 16 15 16 18 19 19 19 19 19 19 20 20 21 22 20 19 17 18 22 23 22 21 16 11 6 11 15 11 11 12 6 3 3 3 5 6 6 7 7 9 9 8 8 7 7 6 6 6 4
12 19 21 21 18 18 18 13 4 4 6 7 8 11 11 12 14 16 16 17 18 17 18 18 19 19 19 19 19 19 19 17 16 16 16 16 16 15 17 19 19 19 19 19 20 20 21 20 19 20 20 19 18 18 21 22 22 21 17 12 11 14 12 7 11 12 8 5 3 3 6 6 5 7 9 9 9 8 8 7 6 6 5 5 4
4 11 14 13 15 18 15 11 6 4 6 6 6 8 10 10 12 14 16 18 19 18 18 18 19 19 19 19 19 20 19 18 16 16 16 16 17 17 18 19 19 19 18 18 21 22 21 20 18 18 19 19 19 19 20 21 20 20 17 13 13 15 13 11 15 17 12 7 5 5 7 7 7 8 8 9 9 8 8 7 7 5 4 5 5
Wind_Direction
158 161 164 162 156 155 156 156 153 153 151 150 147 143 140 137 135 133 131 130 129 128 127 125 123 122 120 118 116 115 113 109 106 104 103 101 100 100 99 100 103 104 101 99 98 92 89 90 92 93 91 88 88 89 90 95 96 96 97 97 96 94 92 92 91 88 85 85 86 86 86 86 85 84 83 82 83 83 83 84 85 84 83 83 83
158 162 164 162 159 157 158 157 155 155 153 153 148 145 142 138 136 134 132 130 130 130 129 127 124 123 121 120 119 117 112 109 108 107 105 103 102 100 99 98 101 105 103 101 102 100 94 90 90 92 92 88 87 90 90 93 96 95 95 94 93 91 91 90 90 88 85 86 87 88 87 86 84 83 82 81 80 80 81 82 83 82 83 83 82
156 162 163 161 160 159 160 158 158 157 155 154 149 147 143 139 137 134 133 132 132 131 130 128 126 124 122 121 120 116 112 111 110 109 108 106 104 102 101 98 99 104 104 102 102 103 99 95 94 92 93 92 88 90 92 94 97 96 94 92 90 88 87 89 90 90 91 91 90 89 86 85 84 84 81 79 79 79 79 79 80 81 80 80 79
157 162 161 160 161 162 161 159 158 158 156 153 150 148 144 141 138 136 134 133 133 132 132 129 127 124 122 121 119 117 115 114 113 113 111 108 106 104 102 100 100 102 104 103 101 103 100 98 99 95 94 97 96 94 93 94 98 97 95 93 89 87 87 90 91 92 95 93 90 87 83 82 84 85 81 76 77 79 80 80 78 79 78 78 76
159 160 161 161 162 164 161 159 160 159 158 154 152 148 145 143 139 137 136 136 135 133 133 130 127 125 123 121 119 118 117 117 117 116 113 110 108 105 103 101 100 101 103 105 107 105 103 105 101 95 93 96 100 98 96 96 98 98 97 96 90 85 86 91 93 93 92 91 88 86 83 80 80 81 82 80 77 76 78 81 79 78 78 77 76
159 159 160 162 163 164 161 161 162 161 159 155 152 149 146 144 140 139 138 137 135 133 131 129 126 124 123 121 120 120 119 119 118 117 115 112 109 107 105 102 101 102 102 102 107 110 112 110 98 96 96 95 98 100 102 100 98 97 97 96 90 84 85 91 92 88 87 88 88 88 88 86 81 78 80 83 81 79 78 78 79 78 77 76 75
160 158 160 164 164 163 162 163 163 162 160 156 151 149 147 143 142 140 139 137 134 132 128 127 126 124 123 122 122 121 120 121 120 119 116 113 111 109 106 104 104 103 102 102 104 108 112 108 100 101 101 100 103 104 104 101 95 91 86 85 88 91 96 99 94 88 87 89 90 90 91 91 87 80 79 81 82 84 81 76 75 76 75 74 73
158 158 161 165 164 164 164 164 164 163 160 155 151 150 148 144 144 142 140 137 133 131 128 128 127 126 124 123 124 122 123 124 123 121 117 114 114 114 111 109 108 106 109 110 109 109 110 108 108 108 110 113 112 107 102 94 84 75 72 76 81 97 122 120 104 96 92 93 94 93 92 89 85 83 81 82 83 84 86 83 76 74 74 73 71
156 159 162 165 164 164 165 166 166 164 160 155 153 152 150 148 146 144 140 136 133 131 130 130 130 129 125 124 126 125 127 127 125 122 119 118 120 120 116 113 110 111 113 114 115 116 112 110 114 116 120 119 113 107 98 85 73 72 83 88 87 102 125 125 112 105 100 99 97 92 87 81 82 88 86 85 87 87 89 89 83 78 75 75 76
158 160 163 165 164 165 167 168 169 166 161 157 156 155 154 151 146 143 139 136 134 133 132 133 132 131 127 127 128 128 130 130 127 124 121 122 123 119 116 115 112 110 109 111 117 124 124 123 125 125 125 120 115 108 93 81 78 87 99 100 97 108 123 124 117 111 106 103 97 89 83 80 85 92 91 89 89 87 86 87 86 83 78 77 80
160 162 164 166 165 167 168 170 171 166 162 161 159 157 156 152 147 143 140 138 136 134 134 134 134 131 130 131 134 133 133 132 128 125 122 122 122 117 117 116 111 107 106 111 120 131 135 134 133 130 126 121 115 104 89 84 89 102 111 109 106 112 119 122 116 111 110 106 99 92 90 90 92 93 92 91 89 87 86 87 85 82 78 74 76
162 164 165 166 167 169 170 171 171 166 162 163 161 157 155 152 148 146 144 143 139 138 137 135 135 134 133 135 138 136 133 132 127 124 123 122 121 119 119 116 110 107 107 114 125 134 139 138 136 131 126 120 111 100 91 90 99 113 119 116 112 112 114 114 110 111 111 106 101 98 97 97 98 96 94 93 91 91 90 90 88 83 83 81 78
163 165 165 165 168 171 170 170 170 166 164 164 162 157 155 152 149 149 150 148 144 142 140 137 136 137 135 137 141 137 133 131 126 125 126 125 123 122 120 115 109 106 107 115 129 138 141 141 137 131 124 116 108 100 94 96 108 121 125 121 116 111 106 105 107 111 112 108 105 102 101 101 102 99 96 95 93 94 91 91 90 84 84 87 84
163 166 164 165 168 170 169 169 169 167 167 166 163 159 156 154 153 154 154 152 147 145 143 138 137 138 138 140 142 139 135 131 128 129 130 128 126 125 121 113 108 106 107 115 130 140 144 143 137 129 120 113 107 100 94 96 110 125 129 124 113 104 99 104 111 115 115 113 112 111 109 107 107 102 98 96 94 94 94 94 93 87 85 87 85
162 164 163 165 167 167 168 168 169 168 168 167 166 163 160 159 159 159 157 154 150 148 146 140 137 139 140 142 143 141 137 131 131 133 133 132 128 125 120 113 109 108 109 115 130 141 145 142 135 126 118 113 106 97 90 90 107 125 128 121 108 99 94 102 114 120 121 120 120 118 113 110 106 102 101 98 95 94 95 96 91 87 87 86 85
162 162 163 165 165 166 168 169 170 170 170 170 169 167 166 165 163 162 160 157 153 152 150 143 139 141 142 143 144 143 138 134 135 137 137 136 130 124 120 115 111 111 112 117 130 140 144 140 132 125 120 114 102 90 85 91 107 123 126 117 105 98 94 97 108 116 120 121 118 114 111 108 104 103 104 99 97 97 96 94 90 88 89 89 91
162 161 162 163 165 166 168 172 170 169 172 173 172 171 171 169 164 163 162 160 157 156 155 149 144 145 145 145 147 146 142 139 140 140 139 138 132 124 121 117 115 115 115 119 131 139 142 139 132 128 121 109 94 85 88 96 107 122 125 117 106 100 95 95 102 109 114 116 112 109 108 107 107 105 104 101 100 99 99 95 93 92 92 96 95
162 162 161 163 166 166 169 172 170 170 172 172 174 174 173 171 167 166 165 164 162 160 158 154 150 149 149 150 152 151 148 144 143 143 141 139 134 126 123 121 119 119 118 122 132 140 143 140 136 131 119 103 88 85 96 102 109 122 125 117 110 101 95 96 103 109 111 113 113 112 109 107 108 104 103 105 104 102 101 97 95 95 95 99 94
162 162 162 165 167 167 170 171 171 172 172 174 177 175 174 173 170 169 167 166 164 160 159 155 151 152 153 154 155 155 153 147 147 148 143 140 136 130 126 125 123 122 122 124 133 142 144 143 140 131 118 102 86 84 99 109 114 123 127 118 110 99 96 99 107 113 113 112 113 113 111 108 107 106 107 107 106 105 104 101 99 97 95 95 94
162 162 163 166 168 170 172 171 173 173 175 179 177 174 175 175 173 172 170 167 164 163 159 153 151 154 155 156 157 159 157 151 152 153 147 143 137 133 130 128 127 126 126 127 134 144 147 147 143 133 122 106 91 85 98 114 120 126 127 118 110 101 98 104 112 117 116 115 113 111 109 108 110 111 110 109 110 109 106 106 104 99 96 94 96
161 163 165 168 170 172 172 173 175 176 179 180 176 175 175 176 176 173 170 167 167 167 161 156 154 154 155 159 161 160 158 156 157 158 154 148 139 137 134 132 132 129 131 130 133 142 147 151 147 138 126 108 97 89 94 114 123 126 128 121 112 102 99 106 114 119 121 121 117 114 113 113 113 113 112 113 113 111 109 109 106 100 100 99 98
158 163 167 172 173 174 174 175 178 180 182 180 177 175 175 178 177 173 171 169 169 169 164 162 157 154 158 162 163 160 158 158 160 161 158 152 144 141 138 135 136 134 135 135 134 137 145 153 152 144 130 109 103 97 98 120 130 130 129 124 112 102 101 107 113 120 122 121 119 119 120 117 116 116 116 115 112 113 114 111 107 101 98 95 96
159 165 171 175 175 175 178 180 181 183 184 180 178 175 177 180 178 174 173 171 172 173 170 167 163 160 163 165 165 162 161 162 165 165 161 157 149 144 143 138 140 140 139 140 139 136 141 153 156 149 132 111 110 104 103 124 138 139 133 124 110 100 102 109 114 118 119 118 120 121 120 119 120 119 117 117 113 112 110 109 109 104 99 94 96
168 171 172 175 178 178 181 184 183 184 184 180 177 177 180 182 181 177 175 174 176 177 175 172 170 169 167 166 167 164 165 168 171 172 168 164 154 148 149 145 144 144 145 145 144 140 140 151 157 152 135 118 115 108 104 118 134 140 136 124 108 103 107 114 117 119 121 122 122 123 123 124 123 119 118 117 114 111 109 109 109 106 105 101 100
176 174 172 174 180 181 182 184 184 185 184 181 179 180 183 184 183 180 179 178 180 180 178 177 175 173 169 167 169 167 169 172 179 182 178 173 163 153 152 151 148 148 150 150 148 144 143 151 158 155 140 127 118 108 107 114 128 138 138 130 118 116 116 119 122 122 123 128 131 133 132 126 122 120 119 117 116 114 112 112 111 112 110 105 103
179 174 174 176 182 181 181 183 184 187 187 185 182 183 186 186 184 184 184 182 184 183 180 180 178 175 172 172 173 171 173 177 183 185 182 181 174 162 157 157 155 154 156 154 151 148 149 155 159 158 149 140 126 112 113 120 130 139 142 138 132 129 124 124 126 124 124 130 137 138 133 127 125 123 121 123 120 113 112 112 112 111 108 107 106
180 180 178 177 180 179 183 185 186 188 188 187 186 186 189 188 186 187 187 186 187 185 183 184 180 178 177 178 178 177 180 184 185 182 180 182 182 175 168 168 165 162 162 159 156 153 155 159 161 161 159 153 141 128 138 150 147 147 154 149 144 139 132 131 129 128 131 132 133 134 133 132 127 126 128 130 123 116 116 114 113 111 110 109 104
173 169 171 168 174 181 187 187 187 188 187 189 189 190 191 189 188 190 190 188 189 188 186 186 183 183 182 183 183 183 187 189 187 183 182 183 183 179 173 174 172 168 167 164 161 159 161 163 164 165 166 162 157 157 167 174 183 186 173 160 154 149 141 139 137 136 137 136 138 140 141 137 131 131 131 125 121 119 117 114 113 112 110 106 104
115 103 107 125 169 186 190 189 191 190 191 193 193 195 194 191 192 194 192 190 191 190 189 188 186 187 185 186 189 190 193 194 190 185 184 181 175 171 169 171 171 169 168 168 167 166 169 171 172 172 170 169 173 189 182 176 184 186 181 172 163 157 149 147 146 144 144 147 148 148 148 141 135 132 124 121 123 121 118 117 117 115 114 113 113
126 148 168 187 198 198 193 193 195 195 196 196 197 200 197 196 197 197 195 192 191 190 190 189 189 190 189 188 193 197 198 196 193 188 184 178 170 165 163 162 159 159 162 166 167 169 173 175 175 173 174 176 185 203 191 174 169 170 181 181 170 162 157 154 151 150 151 153 152 149 147 135 125 120 120 128 129 127 126 127 129 129 126 123 121
161 173 182 193 200 200 196 196 199 200 201 199 201 205 202 202 203 200 196 194 191 190 190 190 192 194 194 194 197 201 202 200 197 192 185 178 173 168 162 157 153 148 151 157 161 165 172 176 175 173 176 177 178 191 184 174 168 169 180 182 174 166 161 157 154 154 153 153 152 150 142 131 125 126 135 141 129 126 130 131 133 132 132 128 124
173 179 185 192 195 199 198 198 201 201 201 201 204 207 208 210 211 207 200 195 193 193 193 193 196 198 200 201 203 204 204 205 202 196 189 180 175 173 169 164 159 154 154 159 162 167 176 180 178 175 174 172 169 172 175 182 183 176 177 178 173 168 163 161 159 157 155 156 155 148 140 136 137 144 151 142 125 119 111 114 122 122 127 131 131
180 185 187 190 195 198 196 195 198 201 203 205 206 207 209 211 214 213 208 202 198 198 198 197 198 200 202 204 208 209 208 209 205 199 192 183 179 180 179 175 172 168 167 170 170 174 183 180 176 175 169 164 162 164 175 190 191 181 175 172 170 168 165 163 163 160 157 160 157 147 143 143 145 148 149 140 134 130 108 101 118 128 131 135 142
180 186 188 191 195 195 193 195 198 202 204 206 208 208 209 211 211 212 212 208 203 202 201 201 202 201 201 205 209 209 208 208 205 201 193 187 188 189 188 185 182 177 177 179 178 181 183 177 175 175 167 165 167 170 182 187 184 180 171 167 168 168 168 166 166 164 161 161 156 150 147 148 149 147 148 147 147 145 122 99 108 135 147 146 145
174 184 188 188 189 188 188 193 198 202 202 203 207 209 212 213 210 210 212 209 206 204 204 203 205 204 203 206 208 207 207 207 206 202 195 193 198 198 192 191 190 186 187 186 184 186 185 182 183 182 172 169 171 170 179 183 175 172 166 164 168 169 170 169 168 168 165 161 157 157 155 153 155 157 159 160 161 155 131 104 91 116 139 143 138
166 178 177 168 164 171 185 192 200 205 204 204 206 208 211 211 210 212 212 210 208 207 207 208 207 207 207 207 207 205 206 208 208 205 201 201 206 204 194 192 198 200 198 191 188 193 192 185 183 185 179 170 170 167 171 178 167 161 161 164 170 172 173 172 172 171 166 162 158 161 162 160 164 169 171 175 189 170 133 120 104 105 116 119 120
184 187 174 164 165 181 194 196 203 211 213 212 211 211 209 208 212 215 214 212 212 210 210 212 211 210 213 211 208 207 208 211 210 208 208 209 210 206 196 193 201 207 205 196 187 188 187 180 170 176 184 174 170 165 160 162 151 149 155 161 169 173 175 175 177 176 169 165 162 164 168 170 174 176 181 189 205 172 141 138 132 119 114 111 116
199 197 186 182 186 192 194 193 199 209 217 218 215 210 206 210 215 219 218 214 214 215 214 216 215 215 217 215 210 208 210 212 211 210 211 213 212 207 199 195 202 208 208 201 186 182 183 180 167 170 181 175 170 165 155 147 135 139 147 153 166 174 179 181 182 182 179 175 169 169 174 177 183 186 190 197 202 172 156 156 148 139 135 126 129
204 200 192 192 194 195 195 195 199 205 214 217 211 203 206 214 220 223 225 221 217 215 216 218 218 219 219 214 210 209 211 211 210 210 210 211 211 207 202 197 202 208 209 203 188 183 182 178 170 169 173 171 171 165 154 141 129 133 141 148 161 173 180 184 186 188 187 186 182 180 180 183 190 192 194 199 196 177 170 174 163 155 161 154 150
204 199 193 194 198 201 200 201 202 202 205 208 203 200 206 213 218 219 222 225 223 218 217 219 220 220 218 212 209 209 211 211 208 209 208 208 209 209 206 201 202 207 210 206 196 191 183 174 171 172 172 163 159 159 153 141 127 122 128 140 156 171 180 182 189 195 195 198 197 192 190 190 190 188 190 196 189 169 169 182 176 172 182 186 191
204 199 196 196 198 202 203 206 205 194 185 193 203 203 202 207 211 212 215 219 223 222 218 219 220 218 216 212 210 209 212 211 208 208 207 207 209 210 209 205 203 205 210 211 204 195 182 175 174 177 176 160 151 154 153 141 125 115 115 118 131 153 176 185 190 202 204 204 203 203 204 196 188 185 187 190 182 162 158 176 183 188 203 215 216
204 204 202 199 199 202 206 208 199 175 176 194 208 207 204 205 207 211 216 215 218 222 220 220 220 219 218 215 211 211 212 210 207 207 208 208 210 210 209 207 206 206 207 208 205 193 181 180 179 177 174 163 156 157 157 146 126 119 119 110 108 121 148 178 191 219 224 212 207 215 220 200 190 189 191 191 183 169 160 173 190 198 210 224 229
207 209 206 203 205 207 207 206 195 186 194 202 204 202 201 204 208 212 215 212 214 221 224 223 221 222 223 218 214 213 212 209 207 207 208 207 209 211 210 208 207 205 200 198 200 194 183 185 186 179 170 161 157 160 164 160 139 125 119 117 106 104 109 122 166 216 241 229 208 214 217 196 193 196 196 199 198 187 177 181 194 202 211 228 245
207 208 207 206 207 206 208 210 205 202 209 211 206 200 197 198 203 208 213 213 214 220 223 224 223 224 222 217 215 213 213 213 209 208 208 208 209 211 210 208 206 203 200 198 198 195 188 187 189 185 175 162 156 161 167 168 158 144 125 100 85 124 177 137 128 137 247 251 213 210 211 193 195 201 201 204 212 210 196 193 206 213 220 234 253
206 206 209 209 206 206 211 216 213 210 215 217 208 196 190 187 190 197 206 208 209 214 216 217 219 218 215 213 213 213 216 217 212 208 209 210 210 210 211 211 208 205 204 204 200 195 192 190 188 187 186 176 166 166 168 171 174 167 153 137 123 196 198 145 142 127 227 226 206 212 219 202 198 203 206 209 215 216 204 199 210 218 225 232 241
207 206 209 210 207 209 214 218 217 217 221 222 211 194 187 184 186 194 199 197 197 203 208 211 211 207 209 213 213 213 215 215 213 210 208 209 209 210 214 216 212 206 204 205 200 196 195 193 190 190 194 191 178 170 170 177 186 182 168 154 147 199 171 146 144 132 183 199 201 206 209 200 199 201 207 213 211 207 202 201 211 216 223 233 238
195 197 201 207 218 222 224 228 229 229 228 224 215 199 192 191 194 199 201 197 194 197 206 214 212 207 212 217 214 212 213 213 212 212 211 209 209 212 216 216 211 204 201 201 197 196 198 195 192 194 198 199 188 176 175 179 189 193 191 185 188 202 172 160 160 164 152 190 195 191 193 192 198 202 207 213 208 202 201 204 213 218 223 236 249
180 180 186 193 209 229 241 264 263 234 229 224 213 203 203 205 200 196 198 199 195 196 205 216 218 213 213 215 216 215 213 213 212 212 212 210 211 214 213 210 206 200 197 197 195 195 198 196 194 197 202 204 200 189 183 183 190 197 201 209 232 189 176 174 172 163 137 140 168 179 191 189 196 205 204 202 198 198 206 214 222 227 231 240 249
188 189 190 190 191 203 223 246 266 243 247 246 224 210 217 223 207 195 196 199 198 200 205 213 218 216 214 215 217 217 215 213 212 212 214 213 212 210 204 202 199 195 193 193 195 195 195 195 195 199 205 207 208 202 193 192 197 199 197 199 183 164 173 180 174 164 146 148 155 159 178 177 186 196 193 188 190 196 207 220 226 227 236 241 238
194 200 200 195 186 185 203 217 238 284 274 270 251 232 238 238 215 202 198 198 199 200 199 205 212 213 214 216 217 218 216 215 213 212 214 213 208 202 198 198 196 194 194 192 193 195 194 195 196 199 207 211 211 211 207 205 204 200 199 196 172 161 165 169 173 169 153 150 153 150 167 169 175 187 189 189 193 197 201 218 228 229 232 225 208
196 212 215 202 179 172 183 197 216 260 261 269 267 251 255 248 223 210 207 204 203 201 197 199 205 208 211 215 217 217 218 218 217 213 210 206 200 196 195 197 196 195 198 197 196 197 196 196 197 201 209 214 215 217 217 217 211 203 205 210 197 186 185 186 184 177 164 153 147 147 168 175 173 180 189 194 198 197 200 217 225 224 211 186 170